Flag for Libya Weather past 2 weeks in Tripoli, Libya

Now
73 °F

Passing clouds.


Feels Like: 77 °F
Forecast: 71 / 75 °F
Wind: 20 mph from Northwest

Location: Djerba Mellita

Current Time: Oct 23, 2014 at 11:53:37 AM

Latest Report: Oct 23, 2014 at 11:00 AM


Visibility: 5 mi

Pressure: 30.04 "Hg

Humidity: 41%

Dew point: 48 °F

Location of TripoliLocation

Historic Weather in Tripoli — Graph

°F

Tripoli temperature yesterday

Maximum temperature yesterday: 84 °F (at 3:00 PM)
Minimum temperature yesterday: 66 °F (at 2:30 AM)
Average temperature yesterday: 77 °F

Past Weeks' High & Low Weather Summary

 TemperatureHumidityPressure
High104 °F (Oct 14, 2:30 PM)100% (Oct 18, 8:00 AM)30.21 "Hg (Oct 18, 8:00 AM)
Low64 °F (Oct 21, 7:30 AM)9% (Oct 14, 2:30 PM)29.71 "Hg (Oct 15, 3:00 AM)
Average79 °F61%30.01 "Hg
* Reported Oct 8 10:00 AM — Oct 23 10:30 AM, Tripoli, Weather by CustomWeather, © 2014

Note: Actual official high and low records may vary slightly from our data, if they occured in-between our weather recording intervals... More about our weather records

Advertising

Tripoli weather history for previous 24 hours

 ConditionsComfort  
Time TempWeatherWind HumidityBarometerVisibility
10:30 AM
Oct 23
73 °FPassing clouds.15 mph47%30.04 "Hg4 mi
10:00 AM72 °FPassing clouds.13 mph47%30.04 "Hg4 mi
9:30 AM73 °FPassing clouds.14 mph44%30.04 "Hg4 mi
9:00 AM72 °FPassing clouds.13 mph47%30.01 "Hg4 mi
8:00 AM70 °FPassing clouds.17 mph50%30.01 "Hg4 mi
7:30 AM70 °FPassing clouds.17 mph50%29.98 "Hg4 mi
7:00 AM70 °FPassing clouds.18 mph50%29.98 "Hg4 mi
6:30 AM70 °FPassing clouds.22 mph46%29.98 "Hg4 mi
6:00 AM70 °FPassing clouds.21 mph50%29.98 "Hg4 mi
5:30 AM70 °FPassing clouds.18 mph46%29.98 "Hg4 mi
5:00 AM70 °FPassing clouds.20 mph46%29.98 "Hg4 mi
4:00 AM72 °FPassing clouds.22 mph44%29.98 "Hg4 mi
3:30 AM72 °FPassing clouds.26 mph47%29.98 "Hg4 mi
3:00 AM72 °FPassing clouds.22 mph44%29.98 "Hg4 mi
2:30 AM72 °FPassing clouds.23 mph44%29.98 "Hg5 mi
2:00 AM73 °FPassing clouds.26 mph44%29.98 "Hg5 mi
1:30 AM73 °FPassing clouds.23 mph41%29.98 "Hg5 mi
1:00 AM73 °FPassing clouds.17 mph47%29.98 "HgN/A
12:30 AM75 °FPassing clouds.17 mph47%29.98 "HgN/A
12:00 AM75 °FPassing clouds.15 mph50%29.95 "HgN/A
11:30 PM
Oct 22
75 °FPassing clouds.20 mph50%29.95 "HgN/A
11:00 PM77 °FPassing clouds.21 mph47%29.95 "HgN/A
10:30 PM77 °FPassing clouds.23 mph44%29.95 "HgN/A
10:00 PM77 °FPassing clouds.23 mph47%29.95 "HgN/A
9:30 PM79 °FPassing clouds.23 mph48%29.92 "HgN/A
9:00 PM79 °FPassing clouds.23 mph51%29.92 "HgN/A
8:30 PM81 °FPassing clouds.18 mph51%29.92 "HgN/A
8:00 PM81 °FPassing clouds.18 mph54%29.92 "HgN/A
7:30 PM81 °FPassing clouds.6 mph48%29.86 "HgN/A
7:00 PM82 °FPassing clouds.6 mph45%29.86 "HgN/A
6:30 PM82 °FPassing clouds.5 mph42%29.86 "HgN/A
6:00 PM84 °FPassing clouds.7 mph35%29.89 "HgN/A
5:00 PM84 °FSunny.9 mph35%29.89 "Hg10 mi
4:30 PM84 °FSunny.9 mph35%29.89 "Hg10 mi
4:00 PM84 °FPassing clouds.8 mph31%29.89 "HgN/A
3:30 PM84 °FSunny.8 mph33%29.89 "Hg10 mi
3:00 PM84 °FPassing clouds.8 mph37%29.92 "HgN/A
2:30 PM82 °FPassing clouds.9 mph37%29.92 "HgN/A
2:00 PM82 °FSunny.10 mph40%29.92 "Hg10 mi
1:30 PM82 °FSunny.10 mph42%29.95 "Hg10 mi
1:00 PM81 °FSunny.12 mph45%29.98 "Hg10 mi
12:30 PM81 °FSunny.12 mph51%29.98 "Hg10 mi
12:00 PM81 °FSunny.12 mph51%29.98 "Hg10 mi
11:30 AM81 °FSunny.12 mph54%30.01 "Hg10 mi
11:00 AM81 °FSunny.12 mph54%29.98 "Hg10 mi
Weather by CustomWeather, © 2014

See weather overviewHow to use our weather pages